AMX647 MMMY-MMMX

Flight info

Callsign AMX647
Flight time 1h 7m
Altitude 36000
Route KERGA1A KERGA UT132 DARAN DARAN3A
Aircraft B738/M-SDE2E3FGHIRWXY/LB1V1

Departure

Time 2026-04-23 03:18
Airport Monterrey International Airport (MMMY)

Arrival

Time 2026-04-23 04:25
Airport Mexico City Benito Juárez International Airport (MMMX)
Time Latitude Longitude Altitude Speed Heading
2026-04-23 03:04 25.77881 -100.11330 1284 ft 0 kts 210°
2026-04-23 03:09 25.77894 -100.11321 1283 ft 2 kts 210°
2026-04-23 03:09 25.77907 -100.11313 1283 ft 2 kts 210°
2026-04-23 03:10 25.77920 -100.11304 1283 ft 2 kts 211°
2026-04-23 03:10 25.77931 -100.11293 1282 ft 2 kts 237°
2026-04-23 03:10 25.77937 -100.11279 1282 ft 2 kts 255°
2026-04-23 03:10 25.77939 -100.11262 1281 ft 2 kts 275°
2026-04-23 03:11 25.77936 -100.11246 1281 ft 2 kts 294°
2026-04-23 03:11 25.77932 -100.11239 1280 ft 1 kts 304°
2026-04-23 03:11 25.77930 -100.11235 1280 ft 0 kts 301°
2026-04-23 03:13 25.77931 -100.11235 1280 ft 0 kts 301°
2026-04-23 03:14 25.77931 -100.11237 1280 ft 1 kts 301°
2026-04-23 03:14 25.77947 -100.11266 1281 ft 7 kts 301°
2026-04-23 03:14 25.77986 -100.11339 1284 ft 14 kts 300°
2026-04-23 03:14 25.78035 -100.11429 1285 ft 12 kts 301°
2026-04-23 03:15 25.78081 -100.11513 1286 ft 13 kts 301°
2026-04-23 03:15 25.78133 -100.11610 1289 ft 15 kts 301°
2026-04-23 03:15 25.78189 -100.11710 1291 ft 14 kts 301°
2026-04-23 03:15 25.78236 -100.11791 1291 ft 8 kts 313°
2026-04-23 03:16 25.78287 -100.11796 1291 ft 7 kts 32°
2026-04-23 03:16 25.78333 -100.11764 1289 ft 8 kts 31°
2026-04-23 03:16 25.78393 -100.11683 1288 ft 6 kts 122°
2026-04-23 03:17 25.78334 -100.11574 1285 ft 45 kts 120°
2026-04-23 03:17 25.78033 -100.11023 1275 ft 118 kts 121°
2026-04-23 03:17 25.77502 -100.10046 1258 ft 176 kts 121°
2026-04-23 03:17 25.76809 -100.08810 1694 ft 198 kts 121°
2026-04-23 03:18 25.76075 -100.07471 2357 ft 212 kts 120°
2026-04-23 03:18 25.75323 -100.06084 3224 ft 213 kts 120°
2026-04-23 03:18 25.74533 -100.04622 3627 ft 238 kts 120°
2026-04-23 03:18 25.73642 -100.02970 4107 ft 258 kts 120°
2026-04-23 03:19 25.72724 -100.01288 5047 ft 257 kts 120°
2026-04-23 03:19 25.71776 -99.99552 5633 ft 272 kts 120°
2026-04-23 03:19 25.70593 -99.97905 6344 ft 281 kts 141°
2026-04-23 03:19 25.68845 -99.96970 7149 ft 286 kts 166°
2026-04-23 03:20 25.66843 -99.96825 7867 ft 292 kts 182°
2026-04-23 03:20 25.64818 -99.96963 8619 ft 296 kts 184°
2026-04-23 03:20 25.62752 -99.97087 9383 ft 299 kts 183°
2026-04-23 03:20 25.60661 -99.97196 10218 ft 301 kts 184°
2026-04-23 03:21 25.58574 -99.97302 10997 ft 304 kts 185°
2026-04-23 03:21 25.56451 -99.97411 11818 ft 306 kts 185°
2026-04-23 03:21 25.54322 -99.97523 12624 ft 309 kts 186°
2026-04-23 03:21 25.52178 -99.97636 13454 ft 311 kts 187°
2026-04-23 03:22 25.50016 -99.97756 14171 ft 316 kts 187°
2026-04-23 03:22 25.47790 -99.97881 14859 ft 324 kts 187°
2026-04-23 03:22 25.45485 -99.98012 15287 ft 341 kts 186°
2026-04-23 03:22 25.43035 -99.98150 15740 ft 356 kts 187°
2026-04-23 03:23 25.40529 -99.98292 16147 ft 371 kts 186°
2026-04-23 03:23 25.37880 -99.98441 16522 ft 387 kts 186°
2026-04-23 03:23 25.35123 -99.98595 16924 ft 402 kts 186°
2026-04-23 03:23 25.32292 -99.98740 17354 ft 415 kts 186°
2026-04-23 03:24 25.29395 -99.98874 18013 ft 420 kts 186°
2026-04-23 03:24 25.26446 -99.99004 18777 ft 423 kts 186°
2026-04-23 03:24 25.23514 -99.99134 19451 ft 428 kts 186°
2026-04-23 03:24 25.20490 -99.99271 20109 ft 433 kts 186°
2026-04-23 03:25 25.17501 -99.99409 20724 ft 438 kts 186°
2026-04-23 03:25 25.14440 -99.99551 21372 ft 441 kts 186°
2026-04-23 03:25 25.11364 -99.99695 22002 ft 445 kts 186°
2026-04-23 03:25 25.08220 -99.99841 22545 ft 451 kts 187°
2026-04-23 03:26 25.05075 -99.99989 23129 ft 455 kts 187°
2026-04-23 03:26 25.01902 -100.00137 23735 ft 459 kts 187°
2026-04-23 03:26 24.98715 -100.00288 24278 ft 464 kts 187°
2026-04-23 03:26 24.95459 -100.00442 24867 ft 467 kts 187°
2026-04-23 03:27 24.92190 -100.00502 25368 ft 475 kts 185°
2026-04-23 03:27 24.88872 -100.00401 25954 ft 479 kts 182°
2026-04-23 03:27 24.85537 -100.00201 26685 ft 479 kts 181°
2026-04-23 03:27 24.82188 -99.99959 27272 ft 482 kts 181°
2026-04-23 03:28 24.78801 -99.99715 27667 ft 488 kts 181°
2026-04-23 03:28 24.75435 -99.99482 28198 ft 490 kts 182°
2026-04-23 03:28 24.72019 -99.99253 29074 ft 485 kts 182°
2026-04-23 03:28 24.68683 -99.99037 29869 ft 481 kts 182°
2026-04-23 03:29 24.65329 -99.98829 30243 ft 486 kts 182°
2026-04-23 03:29 24.61927 -99.98626 30780 ft 487 kts 182°
2026-04-23 03:29 24.58521 -99.98424 31444 ft 484 kts 182°
2026-04-23 03:29 24.55176 -99.98225 32077 ft 481 kts 182°
2026-04-23 03:30 24.51826 -99.98029 32650 ft 479 kts 182°
2026-04-23 03:30 24.48502 -99.97836 33179 ft 478 kts 183°
2026-04-23 03:30 24.45141 -99.97649 33411 ft 483 kts 183°
2026-04-23 03:30 24.41786 -99.97466 33677 ft 486 kts 183°
2026-04-23 03:31 24.38404 -99.97279 34170 ft 484 kts 182°
2026-04-23 03:31 24.35043 -99.97088 34689 ft 481 kts 182°
2026-04-23 03:31 24.31695 -99.96896 35136 ft 480 kts 182°
2026-04-23 03:31 24.28387 -99.96706 35522 ft 480 kts 182°
2026-04-23 03:32 24.25043 -99.96516 35768 ft 483 kts 182°
2026-04-23 03:32 24.21682 -99.96326 36151 ft 482 kts 182°
2026-04-23 03:32 24.18309 -99.96138 36264 ft 488 kts 183°
2026-04-23 03:32 24.14890 -99.95950 36280 ft 494 kts 182°
2026-04-23 03:33 24.08009 -99.95564 36275 ft 494 kts 182°
2026-04-23 03:33 24.01140 -99.95170 36273 ft 491 kts 182°
2026-04-23 03:34 23.94310 -99.94785 36267 ft 494 kts 182°
2026-04-23 03:34 23.87456 -99.94394 36259 ft 490 kts 182°
2026-04-23 03:35 23.80623 -99.94010 36262 ft 493 kts 182°
2026-04-23 03:35 23.73772 -99.93625 36264 ft 492 kts 182°
2026-04-23 03:36 23.66930 -99.93237 36274 ft 492 kts 182°
2026-04-23 03:36 23.60067 -99.92849 36266 ft 490 kts 182°
2026-04-23 03:37 23.53236 -99.92467 36249 ft 491 kts 182°
2026-04-23 03:37 23.46446 -99.92087 36262 ft 492 kts 182°
2026-04-23 03:38 23.39609 -99.91702 36249 ft 490 kts 182°
2026-04-23 03:38 23.32783 -99.91317 36241 ft 493 kts 182°
2026-04-23 03:39 23.25942 -99.90937 36237 ft 489 kts 182°
2026-04-23 03:39 23.19123 -99.90561 36217 ft 490 kts 182°
2026-04-23 03:40 23.12301 -99.90180 36206 ft 492 kts 182°
2026-04-23 03:40 23.05469 -99.89802 36188 ft 491 kts 182°
2026-04-23 03:41 22.98664 -99.89429 36169 ft 488 kts 182°
2026-04-23 03:41 22.91830 -99.89055 36147 ft 489 kts 182°
2026-04-23 03:42 22.85041 -99.88679 36122 ft 487 kts 182°
2026-04-23 03:42 22.78265 -99.88304 36122 ft 487 kts 182°
2026-04-23 03:43 22.71509 -99.87926 36102 ft 486 kts 182°
2026-04-23 03:43 22.64713 -99.87550 36105 ft 485 kts 182°
2026-04-23 03:44 22.57960 -99.87179 36115 ft 484 kts 182°
2026-04-23 03:44 22.51264 -99.86812 36117 ft 484 kts 182°
2026-04-23 03:45 22.44519 -99.86438 36115 ft 483 kts 182°
2026-04-23 03:45 22.37803 -99.86065 36104 ft 484 kts 182°
2026-04-23 03:46 22.31095 -99.85692 36098 ft 481 kts 182°
2026-04-23 03:46 22.24365 -99.85323 36083 ft 482 kts 182°
2026-04-23 03:47 22.17690 -99.84955 36082 ft 480 kts 182°
2026-04-23 03:47 22.11005 -99.84586 36084 ft 481 kts 182°
2026-04-23 03:48 22.04301 -99.84217 36078 ft 479 kts 182°
2026-04-23 03:48 21.97662 -99.83855 36082 ft 480 kts 182°
2026-04-23 03:49 21.90978 -99.83494 36075 ft 479 kts 182°
2026-04-23 03:49 21.84339 -99.83134 36068 ft 478 kts 182°
2026-04-23 03:50 21.77663 -99.82770 36069 ft 478 kts 182°
2026-04-23 03:50 21.71042 -99.82406 36074 ft 477 kts 182°
2026-04-23 03:51 21.64368 -99.82037 36097 ft 477 kts 181°
2026-04-23 03:51 21.57735 -99.81679 36126 ft 477 kts 182°
2026-04-23 03:52 21.51128 -99.81316 36134 ft 477 kts 182°
2026-04-23 03:52 21.44491 -99.80947 36148 ft 475 kts 182°
2026-04-23 03:53 21.37892 -99.80595 36173 ft 475 kts 181°
2026-04-23 03:53 21.31298 -99.80248 36183 ft 475 kts 181°
2026-04-23 03:54 21.24717 -99.79897 36201 ft 473 kts 181°
2026-04-23 03:54 21.18121 -99.79530 36217 ft 474 kts 181°
2026-04-23 03:55 21.11531 -99.79166 36216 ft 473 kts 181°
2026-04-23 03:55 21.04966 -99.78811 36246 ft 471 kts 181°
2026-04-23 03:56 20.98389 -99.78505 36243 ft 472 kts 182°
2026-04-23 03:56 20.91856 -99.78295 36280 ft 468 kts 183°
2026-04-23 03:57 20.85276 -99.78101 36307 ft 471 kts 183°
2026-04-23 03:57 20.81971 -99.78002 36053 ft 474 kts 182°
2026-04-23 03:57 20.78687 -99.77895 35622 ft 473 kts 182°
2026-04-23 03:58 20.75408 -99.77782 35153 ft 472 kts 182°
2026-04-23 03:58 20.72088 -99.77668 34564 ft 472 kts 182°
2026-04-23 03:58 20.68820 -99.77559 33983 ft 473 kts 182°
2026-04-23 03:58 20.65528 -99.77447 33404 ft 471 kts 182°
2026-04-23 03:59 20.62250 -99.77332 32848 ft 468 kts 181°
2026-04-23 03:59 20.59001 -99.77213 32350 ft 465 kts 181°
2026-04-23 03:59 20.55770 -99.77096 31846 ft 463 kts 182°
2026-04-23 03:59 20.52594 -99.76988 31320 ft 460 kts 181°
2026-04-23 04:00 20.49380 -99.76879 30734 ft 459 kts 181°
2026-04-23 04:00 20.46171 -99.76769 30140 ft 458 kts 181°
2026-04-23 04:00 20.42992 -99.76663 29574 ft 462 kts 181°
2026-04-23 04:00 20.39765 -99.76558 28993 ft 462 kts 181°
2026-04-23 04:01 20.36535 -99.76441 28398 ft 460 kts 180°
2026-04-23 04:01 20.33366 -99.76155 27818 ft 459 kts 174°
2026-04-23 04:01 20.30207 -99.75536 27234 ft 458 kts 172°
2026-04-23 04:01 20.27088 -99.75161 26651 ft 452 kts 181°
2026-04-23 04:02 20.23942 -99.75212 26068 ft 448 kts 183°
2026-04-23 04:02 20.20810 -99.75047 25481 ft 448 kts 177°
2026-04-23 04:02 20.17765 -99.74636 24906 ft 446 kts 174°
2026-04-23 04:02 20.14680 -99.74091 24322 ft 444 kts 172°
2026-04-23 04:03 20.12512 -99.73676 23910 ft 442 kts 172°
2026-04-23 04:03 20.09516 -99.73093 23335 ft 439 kts 172°
2026-04-23 04:03 20.06529 -99.72521 22763 ft 435 kts 172°
2026-04-23 04:03 20.03526 -99.71966 22203 ft 432 kts 172°
2026-04-23 04:04 20.00580 -99.71436 21664 ft 429 kts 173°
2026-04-23 04:04 19.97645 -99.70917 21132 ft 426 kts 173°
2026-04-23 04:04 19.94724 -99.70406 20603 ft 423 kts 172°
2026-04-23 04:04 19.91845 -99.69907 20082 ft 420 kts 172°
2026-04-23 04:05 19.88960 -99.69368 19559 ft 417 kts 168°
2026-04-23 04:05 19.86169 -99.68509 19037 ft 415 kts 159°
2026-04-23 04:05 19.83639 -99.67059 18517 ft 412 kts 144°
2026-04-23 04:05 19.81592 -99.65007 18267 ft 400 kts 129°
2026-04-23 04:06 19.79965 -99.62700 18108 ft 386 kts 123°
2026-04-23 04:06 19.78504 -99.60318 17756 ft 380 kts 121°
2026-04-23 04:06 19.77131 -99.57946 17284 ft 377 kts 120°
2026-04-23 04:06 19.75770 -99.55572 16764 ft 376 kts 120°
2026-04-23 04:07 19.74402 -99.53218 16261 ft 374 kts 120°
2026-04-23 04:07 19.73031 -99.50900 15813 ft 371 kts 121°
2026-04-23 04:07 19.71656 -99.48611 15398 ft 367 kts 121°
2026-04-23 04:07 19.70286 -99.46347 14916 ft 366 kts 121°
2026-04-23 04:08 19.68906 -99.44074 14458 ft 363 kts 121°
2026-04-23 04:08 19.67551 -99.41839 14169 ft 358 kts 121°
2026-04-23 04:08 19.66240 -99.39674 14124 ft 345 kts 121°
2026-04-23 04:08 19.64961 -99.37564 14098 ft 328 kts 121°
2026-04-23 04:09 19.63766 -99.35596 14077 ft 313 kts 120°
2026-04-23 04:09 19.62605 -99.33686 14070 ft 298 kts 121°
2026-04-23 04:09 19.61502 -99.31883 14063 ft 283 kts 121°
2026-04-23 04:09 19.60452 -99.30213 13993 ft 269 kts 123°
2026-04-23 04:10 19.59233 -99.28677 13534 ft 275 kts 135°
2026-04-23 04:10 19.57749 -99.27402 13159 ft 274 kts 142°
2026-04-23 04:10 19.56201 -99.26247 12821 ft 271 kts 144°
2026-04-23 04:10 19.54656 -99.25108 12555 ft 267 kts 143°
2026-04-23 04:11 19.53101 -99.24052 12519 ft 259 kts 151°
2026-04-23 04:11 19.51421 -99.23386 12205 ft 259 kts 171°
2026-04-23 04:11 19.49645 -99.23310 11942 ft 253 kts 182°
2026-04-23 04:11 19.47882 -99.23392 11609 ft 253 kts 183°
2026-04-23 04:12 19.46116 -99.23437 11325 ft 250 kts 181°
2026-04-23 04:12 19.44381 -99.23431 11024 ft 248 kts 179°
2026-04-23 04:12 19.42658 -99.23404 10778 ft 243 kts 179°
2026-04-23 04:12 19.40990 -99.23389 10593 ft 236 kts 179°
2026-04-23 04:13 19.39386 -99.23186 10401 ft 229 kts 160°
2026-04-23 04:13 19.38111 -99.22278 10203 ft 216 kts 127°
2026-04-23 04:13 19.37926 -99.22015 10151 ft 213 kts 121°
2026-04-23 04:13 19.37772 -99.21747 10133 ft 211 kts 116°
2026-04-23 04:14 19.37409 -99.20765 9974 ft 207 kts 103°
2026-04-23 04:14 19.37198 -99.19305 9716 ft 194 kts 87°
2026-04-23 04:14 19.37460 -99.17973 9515 ft 175 kts 63°
2026-04-23 04:14 19.38041 -99.16864 9246 ft 171 kts 58°
2026-04-23 04:15 19.38671 -99.15809 8980 ft 165 kts 53°
2026-04-23 04:15 19.39372 -99.14853 8656 ft 164 kts 51°
2026-04-23 04:15 19.40612 -99.12892 8215 ft 160 kts 60°
2026-04-23 04:16 19.41170 -99.11873 8044 ft 161 kts 60°
2026-04-23 04:16 19.41747 -99.10837 7853 ft 162 kts 59°
2026-04-23 04:16 19.42331 -99.09817 7589 ft 161 kts 60°
2026-04-23 04:16 19.42893 -99.08819 7384 ft 158 kts 60°
2026-04-23 04:17 19.43432 -99.07855 7368 ft 156 kts 60°
2026-04-23 04:17 19.44018 -99.06811 7780 ft 168 kts 59°
2026-04-23 04:17 19.44614 -99.05783 8402 ft 165 kts 58°
2026-04-23 04:17 19.45413 -99.04858 8746 ft 184 kts 35°
2026-04-23 04:18 19.46682 -99.04337 9102 ft 204 kts
2026-04-23 04:18 19.48040 -99.04446 10064 ft 191 kts 349°
2026-04-23 04:18 19.49364 -99.04915 10356 ft 215 kts 337°
2026-04-23 04:18 19.50328 -99.05505 10462 ft 231 kts 326°
2026-04-23 04:19 19.50783 -99.05886 10480 ft 239 kts 320°
2026-04-23 04:19 19.51872 -99.07269 10551 ft 248 kts 300°
2026-04-23 04:19 19.52412 -99.09025 10630 ft 256 kts 278°
2026-04-23 04:19 19.52252 -99.10902 10694 ft 261 kts 252°
2026-04-23 04:20 19.51414 -99.12612 10766 ft 262 kts 239°
2026-04-23 04:20 19.50426 -99.14264 10583 ft 269 kts 240°
2026-04-23 04:20 19.49487 -99.15981 10571 ft 267 kts 241°
2026-04-23 04:20 19.48551 -99.17692 10427 ft 268 kts 240°
2026-04-23 04:21 19.47606 -99.19382 10277 ft 268 kts 240°
2026-04-23 04:21 19.46665 -99.21084 10195 ft 261 kts 240°
2026-04-23 04:21 19.45528 -99.22507 10094 ft 252 kts 215°
2026-04-23 04:21 19.43922 -99.23154 9993 ft 241 kts 183°
2026-04-23 04:22 19.42300 -99.22974 9871 ft 231 kts 163°
2026-04-23 04:22 19.40810 -99.22338 9655 ft 227 kts 148°
2026-04-23 04:22 19.39595 -99.21345 9587 ft 216 kts 130°
2026-04-23 04:22 19.38765 -99.20023 9314 ft 215 kts 112°
2026-04-23 04:23 19.38368 -99.18542 9180 ft 207 kts 94°
2026-04-23 04:23 19.38462 -99.17047 8995 ft 199 kts 75°
2026-04-23 04:23 19.39002 -99.15756 8809 ft 185 kts 57°
2026-04-23 04:23 19.39689 -99.14645 8574 ft 175 kts 58°
2026-04-23 04:24 19.40274 -99.13573 8348 ft 166 kts 60°
2026-04-23 04:24 19.40831 -99.12512 8142 ft 163 kts 60°
2026-04-23 04:24 19.41405 -99.11485 7941 ft 161 kts 60°
2026-04-23 04:24 19.41971 -99.10462 7727 ft 160 kts 60°
2026-04-23 04:25 19.42542 -99.09448 7498 ft 161 kts 60°
2026-04-23 04:25 19.43115 -99.08420 7356 ft 156 kts 60°
2026-04-23 04:25 19.43596 -99.07557 7342 ft 105 kts 59°
2026-04-23 04:25 19.43864 -99.07082 7344 ft 46 kts 58°
2026-04-23 04:26 19.43955 -99.06855 7343 ft 32 kts 84°
2026-04-23 04:26 19.43969 -99.06621 7338 ft 29 kts 89°
2026-04-23 04:26 19.43916 -99.06510 7334 ft 16 kts 183°
2026-04-23 04:26 19.43793 -99.06571 7335 ft 23 kts 207°
2026-04-23 04:27 19.43643 -99.06649 7337 ft 22 kts 206°
2026-04-23 04:27 19.43508 -99.06723 7337 ft 22 kts 208°